Location: Malvern Link
(52.1333°N, 2.3000°W)
Time: 07:44:51
(UTC+00:00)

O/OREOS (USA 219) - Visible Passes

Search period start: 25 June 2022 00:00
Search period end: 05 July 2022 00:00
Orbit: 621 x 646 km, 72.0° (Epoch: 22 May)

Date Brightness Start Highest point End Pass type
(mag) Time Alt. Az. Time Alt. Az. Time Alt. Az.
25 Jun ? 00:12:02 10° N 00:15:49 24° NE 00:19:35 10° E visible
25 Jun ? 01:51:04 10° NNW 01:55:39 66° WSW 02:00:14 10° SSE visible
25 Jun ? 22:55:57 10° N 22:57:28 11° NNE 22:58:59 10° NE visible
26 Jun ? 00:33:50 10° NNW 00:38:11 40° NE 00:42:32 10° ESE visible
26 Jun ? 02:13:24 10° NW 02:17:33 34° WSW 02:21:37 10° S visible
26 Jun ? 23:17:09 10° N 23:20:09 17° NE 23:23:09 10° ENE visible
27 Jun ? 00:55:47 10° NNW 01:00:25 72° ENE 01:05:01 10° SE visible
27 Jun ? 02:36:12 10° WNW 02:39:18 18° W 02:42:24 10° SW visible
27 Jun ? 23:38:48 10° NNW 23:42:41 26° NE 23:46:33 10° ESE visible
28 Jun ? 01:17:54 10° NW 01:22:27 60° WSW 01:26:01 16° S visible
28 Jun ? 22:22:33 10° N 22:24:22 12° NNE 22:26:11 10° NE visible
29 Jun ? 00:00:37 10° NNW 00:05:02 43° NE 00:09:26 10° SE visible
29 Jun ? 01:40:17 10° NW 01:44:21 31° WSW 01:47:04 17° SSW visible
29 Jun ? 22:43:54 10° N 22:47:02 18° NE 22:50:11 10° E visible
30 Jun ? 00:22:36 10° NNW 00:27:14 79° ENE 00:30:46 17° SSE visible
30 Jun ? 02:03:11 10° WNW 02:06:03 16° W 02:08:12 12° SW visible
30 Jun ? 23:05:34 10° NNW 23:09:33 27° NE 23:13:31 10° ESE visible
01 Jul ? 00:44:44 10° NW 00:49:15 55° WSW 00:51:58 23° S visible
01 Jul ? 21:49:13 10° N 21:51:17 13° NNE 21:53:20 10° ENE visible
01 Jul ? 23:27:25 10° NNW 23:31:53 46° NE 23:35:47 13° SE visible
02 Jul ? 01:07:10 10° NW 01:11:07 28° WSW 01:13:12 20° SSW visible
02 Jul ? 22:10:38 10° N 22:13:55 19° NE 22:17:12 10° E visible
02 Jul ? 23:49:25 10° NNW 23:54:03 86° ENE 23:57:05 21° SSE visible
03 Jul ? 01:30:13 10° WNW 01:32:49 15° W 01:34:30 13° WSW visible
03 Jul ? 22:32:20 10° NNW 22:36:24 29° NE 22:40:27 10° ESE visible
04 Jul ? 00:11:35 10° NW 00:16:04 50° WSW 00:18:24 25° S visible
04 Jul ? 21:15:54 10° N 21:18:11 13° NNE 21:20:28 10° ENE visible
04 Jul ? 22:54:12 10° NNW 22:58:44 50° NE 23:02:22 15° SE visible
